Location: Sevilla
(37.3933°N, 5.9839°W)
Time: 05:14:31
(UTC+02:00)

Vanguard 3 - Pass Details

Date: 02 July 2024
Orbit: 508 x 3231 km, 33.4° (Epoch: 15 July)

Event Time Altitude Azimuth Distance (km) Brightness Sun altitude
Rises 13:58:03 0° 279° (W) 5,191 11.2 74.2°
Reaches altitude 10° 14:02:45 10° 269° (W) 3,670 10.6 74.6°
Maximum altitude 14:09:31 25° 219° (SW) 1,990 9.7 75.0°
Drops below altitude 10° 14:14:05 10° 164° (SSE) 2,377 9.9 75.3°
Sets 14:16:27 0° 149° (SSE) 3,064 10.3 75.4°
